Location: Leuk
(46.3174°N, 7.6341°E)
Time: 15:34:27
(UTC+00:00)

Cosmos 1933 Rocket - Pass Details

Date: 09 March 2021
Orbit: 607 x 630 km, 82.5° (Epoch: 18 April)

Event Time Altitude Azimuth Distance (km) Brightness Sun altitude
Rises 04:49:23 0° 352° (N) 2,928 7.0 -11.9°
Reaches altitude 10° 04:51:38 10° 355° (N) 2,018 6.2 -11.5°
Maximum altitude 04:56:07 73° 80° (E) 663 3.9 -10.8°
Drops below altitude 10° 05:00:34 10° 166° (SSE) 2,004 6.3 -10.0°
Sets 05:02:47 0° 168° (SSE) 2,906 7.1 -9.6°
